Regional Weather Roundup
Issued by NWS Sterling, VA

Home | Current Version | Previous Version | Graphics & Text | Print | Product List | Glossary On
Versions: 1 2 3 4 5 6 7 8 9 10 11 12 13 14 15 16 17 18 19 20 21 22 23 24 25 26 27 28 29 30 31 32 33 34 35 36 37 38 39 40 41 42 43 44 45 46 47 48 49 50
000
ASUS41 KLWX 240810
RWRLWX

REGIONAL WEATHER ROUNDUP
NATIONAL WEATHER SERVICE BALTIMORE MD/WASHINGTON DC
400 AM EDT TUE MAY 24 2016

Note: "FAIR" indicates few or no clouds below 12,000 feet
with no significant weather and/or obstructions to visibility.
 TC=TEMPERATURE CELSIUS

 * =Non NWS site. Station does not report precipitation (e.g. rain,
    snow, etc.), thunder, or fog.

DCZ001-MDZ009-015-VAZ040>042-051-053>054-240900-
WASHINGTON METRO

CITY           SKY/WX    TMP DP  RH WIND       PRES   REMARKS
WASHINGTON NAT CLOUDY    59  57  93 SW5       29.94S
DULLES         FAIR      58  55  90 CALM      29.95R
ANDREWS AFB    CLOUDY    59  55  88 W7        29.93S
FT BELVOIR     CLOUDY    58  56  92 VRB1      29.94F
QUANTICO       FAIR      60  55  83 W6        29.96F
LEESBURG*      FAIR      59  55  88 W5        29.96S
MANASSAS*      MOCLDY    55  55 100 CALM      29.96F

$$

MDZ006>007-011-014-240900-
BALTIMORE METRO

CITY           SKY/WX    TMP DP  RH WIND       PRES   REMARKS
BWI AIRPORT    MOCLDY    59  55  87 W8        29.92S
MD SCIENCE CTR   N/A     60  54  80 MISG      29.91F
MARTIN STATE   CLEAR     59  57  94 SW3       29.92S
ANNAPOLIS      MOCLDY    59  56  89 CALM      29.91S

$$

MDZ012-015-019>023-240900-
MARYLAND EASTERN SHORE

CITY           SKY/WX    TMP DP  RH WIND       PRES   REMARKS
OCEAN CITY     CLOUDY    57  53  86 W3        29.91F
SALISBURY      CLOUDY    57  55  93 SW3       29.91F
EASTON*        LGT RAIN  59  59 100 SW6       29.95F

$$

MDZ017>025-240900-
SOUTHERN MARYLAND

CITY           SKY/WX    TMP DP  RH WIND       PRES   REMARKS
PATUXENT RIVER CLOUDY    58  55  90 W10       29.94S
ST INIGOES     MOCLDY    60  57  89 W7        29.94S
LEONARDTOWN*   MOCLDY    55  54  94 W3        29.96S

$$

MDZ003>005-240900-
NORTH CENTRAL MARYLAND

CITY           SKY/WX    TMP DP  RH WIND       PRES   REMARKS
FREDERICK*     MOCLDY    55  55 100 S8        29.97S
HAGERSTOWN APT CLEAR     55  51  86 S5        29.96S
WESTMINSTER*   PTCLDY    55  45  67 SW5       29.93F

$$

MDZ501>502-240900-
WESTERN MARYLAND

CITY           SKY/WX    TMP DP  RH WIND       PRES   REMARKS
OAKLAND*       NOT AVBL
CUMBERLAND*    CLEAR     54  54 100 CALM      30.03F

$$

VAZ025>031-240900-
SHENANDOAH VALLEY

CITY           SKY/WX    TMP DP  RH WIND       PRES   REMARKS
WINCHESTER*    MOCLDY    54  52  94 CALM      29.97S FOG
FRONT ROYAL*   FAIR      55  52  88 S6        29.97S
LURAY*         FAIR      55  55 100 SW5       30.00S
NEW MARKET*    FAIR      54  53  99 CALM      30.00S
STAUNTON*      MOCLDY   N/A N/A N/A SW3       30.04F
WAYNESBORO*    FAIR      51  50  96 CALM      30.03S

$$

WVZ021-048>050-054>055-240900-
EASTERN WEST VIRGINIA PANHANDLE

CITY           SKY/WX    TMP DP  RH WIND       PRES   REMARKS
MARTINSBURG    FOG       50  50 100 CALM      29.96S VSB 1/4
PETERSBURG*    MOCLDY    55  54  98 CALM      30.03R

$$

VAZ036>039-050-240900-
CENTRAL FOOTHILLS

CITY           SKY/WX    TMP DP  RH WIND       PRES   REMARKS
CHARLOTTESVILL FAIR      59  53  80 W3        29.97S
CULPEPER*      MOCLDY    54  54 100 CALM      29.98S FOG
ORANGE*        FAIR      55  55 100 CALM      29.99R
GORDONSVILLE*  FAIR      55  55 100 SW3       29.96S FOG
WARRENTON*     CLOUDY    55  51  85 SW3       29.96F

$$

VAZ055>057-240900-
NORTH AND CENTRAL PIEDMONT

CITY           SKY/WX    TMP DP  RH WIND       PRES   REMARKS
FREDERICKSBRG* CLOUDY    57  57 100 CALM      29.97R
STAFFORD*      CLOUDY    56  55  94 SW3       30.00S

$$

NCZ024-NYZ072-PAZ021-071-VAZ022-071-240900-
OTHER REGIONAL OBSERVATIONS

CITY           SKY/WX    TMP DP  RH WIND       PRES   REMARKS
NEW YORK CITY  LGT RAIN  59  54  83 W7        29.90F
PHILADELPHIA   CLOUDY    58  54  86 SW9       29.88F
PITTSBURGH     CLEAR     54  47  77 CALM      30.01S
ROANOKE        FAIR      53  51  93 VRB3      30.06S
RICHMOND       FAIR      53  52  96 CALM      29.97R
RALEIGH        PTCLDY    51  50  96 SW3       30.03S

$$

ANZ530>537-240900-
MARINE OBSERVATIONS

STATION/POSITION TIME  TEMP    WIND        PRES
                       AIR SEA DIR/SP/G
                 (UTC) (F)     (DEG/KT/KT) (MB)
THOMAS PT LIGHT  0800   61 61  250/  7/  8 1014.3F
BALT KEY BRIDGE  0700   62     240/  5/  6 1012.7F
COVE POINT       0700   58     280/  7/  7 1014.3F
LEWISETTA        0700   58 63  310/  3/  4 1014.0R
SOLOMONS ISLAND  0700   58 62  260/  2/  4   N/A
PINEY POINT      0700          280/  6/  7   N/A

$$




USA.gov is the U.S. government's official web portal to all federal, state and local government web resources and services.